Louisville, KY

8:27 AM EDT on September 27, 2016 (GMT -0400)
Bowman

Weather History for KLOU - February, 2013

Change the Weather History Date:

Thursday, February 21, 2013

  Actual Average Record
Temperature  
Mean Temperature 30 °F 40 °F  
Max Temperature 38 °F 48 °F 71 °F (1997)
Min Temperature 21 °F 31 °F 3 °F (1963)
Degree Days  
Heating Degree Days 35 25  
Month to date heating degree days 603 583  
Since 1 July heating degree days 3054 3192  
Cooling Degree Days 0 0  
Month to date cooling degree days 0 0  
Year to date cooling degree days 0 0  
Moisture  
Dew Point 20 °F    
Average Humidity 61    
Maximum Humidity 78    
Minimum Humidity 44    
Precipitation  
Precipitation 0.18 in 0.12 in 1.58 in (1971)
Month to date precipitation 1.05 2.40  
Year to date precipitation 5.92 5.78  
Sea Level Pressure  
Sea Level Pressure 30.19 in    
Wind  
Wind Speed 8 mph (ENE)    
Max Wind Speed 17 mph    
Max Gust Speed 24 mph    
Visibility 9 miles    
Events Rain    
T = Trace of Precipitation, MM = Missing Value Source: NWS Daily Summary

Daily Weather History Graph

Daily Weather History Graph

Search for Another Location

Airport or City:

Trip Planner

Search our weather history database for the weather conditions in past years. The results will help you decide how hot, cold, wet, or windy it might be!

Date:

Astronomy

Feb. 21, 2013 Rise Set
Actual Time 7:25 AM EST 6:27 PM EST
Civil Twilight 6:58 AM EST 6:54 PM EST
Nautical Twilight 6:27 AM EST 7:25 PM EST
Astronomical Twilight 5:57 AM EST 7:55 PM EST
Moon 2:44 PM EST (2/21) 4:26 AM EST (2/21)
Length of Visible Light 11h 56m
Length of Day
11h 02m
Waxing Gibbous, 83% of the Moon is Illuminated
Feb 21
Waxing Gibbous
Feb 25
Full
Mar 4
Last Quarter
Mar 11
New
Mar 19
First Quarter

Hourly Weather History & Observations

Time (EST) Temp. Windchill Dew Point Humidity Pressure Visibility Wind Dir Wind Speed Gust Speed Precip Events Conditions
12:53 AM 24.8 °F - 12.2 °F 59% 30.32 in 10.0 mi Calm Calm - N/A   Clear
1:53 AM 24.1 °F - 12.9 °F 62% 30.35 in 10.0 mi Calm Calm - N/A   Clear
2:53 AM 23.0 °F 18.4 °F 12.9 °F 65% 30.32 in 10.0 mi NNE 3.5 mph - N/A   Clear
3:53 AM 21.9 °F 15.7 °F 12.9 °F 68% 30.32 in 10.0 mi NNE 4.6 mph - N/A   Clear
4:53 AM 21.0 °F 16.2 °F 14.0 °F 74% 30.34 in 10.0 mi NNE 3.5 mph - N/A   Clear
5:53 AM 21.0 °F 13.4 °F 14.0 °F 74% 30.33 in 10.0 mi NE 5.8 mph - N/A   Clear
6:53 AM 21.2 °F 12.6 °F 14.0 °F 74% 30.33 in 10.0 mi NE 6.9 mph - N/A   Clear
7:53 AM 21.0 °F 13.4 °F 14.0 °F 74% 30.36 in 10.0 mi ENE 5.8 mph - N/A   Clear
8:53 AM 23.0 °F 13.1 °F 14.0 °F 68% 30.36 in 10.0 mi ENE 9.2 mph - N/A   Clear
9:53 AM 26.1 °F 15.6 °F 15.1 °F 63% 30.34 in 10.0 mi East 11.5 mph - N/A   Clear
10:53 AM 28.9 °F 20.4 °F 16.0 °F 58% 30.31 in 10.0 mi East 9.2 mph - N/A   Clear
11:53 AM 30.9 °F 22.8 °F 17.1 °F 57% 30.30 in 10.0 mi NE 9.2 mph - N/A   Clear
12:53 PM 34.0 °F 26.0 °F 17.1 °F 50% 30.24 in 10.0 mi East 10.4 mph - N/A   Clear
1:53 PM 36.0 °F 33.3 °F 18.0 °F 48% 30.23 in 10.0 mi SE 3.5 mph - N/A   Partly Cloudy
2:53 PM 37.0 °F 28.5 °F 18.0 °F 46% 30.13 in 10.0 mi ENE 13.8 mph 20.7 mph N/A   Clear
3:53 PM 37.9 °F 30.0 °F 17.1 °F 43% 30.12 in 10.0 mi East 12.7 mph 18.4 mph N/A   Scattered Clouds
4:53 PM 37.0 °F 28.9 °F 19.0 °F 48% 30.13 in 10.0 mi ENE 12.7 mph 20.7 mph 0.00 in Rain Light Rain
5:53 PM 37.0 °F 32.4 °F 21.9 °F 54% 30.19 in 10.0 mi ENE 5.8 mph - 0.00 in Rain Light Rain
6:53 PM 35.1 °F 27.9 °F 25.0 °F 67% 30.18 in 10.0 mi NE 9.2 mph - 0.01 in Rain Light Rain
7:53 PM 33.1 °F 23.4 °F 24.1 °F 70% 30.15 in 7.0 mi ENE 13.8 mph 19.6 mph 0.00 in Rain Light Rain
8:30 PM 32.0 °F 22.1 °F 26.6 °F 80% 30.07 in 7.0 mi ENE 13.8 mph 19.6 mph 0.03 in Rain Light Freezing Rain
8:53 PM 32.0 °F 23.0 °F 26.1 °F 79% 30.07 in 6.0 mi East 11.5 mph 20.7 mph 0.04 in Rain Light Freezing Rain
9:01 PM 32.0 °F 21.2 °F 26.6 °F 80% 30.06 in 5.0 mi East 16.1 mph 21.9 mph 0.01 in Rain Light Freezing Rain
9:09 PM 32.0 °F 21.2 °F 26.6 °F 80% 30.05 in 9.0 mi East 16.1 mph 21.9 mph 0.01 in Rain Light Freezing Rain
9:27 PM 32.0 °F 22.1 °F 26.6 °F 80% 30.04 in 10.0 mi East 13.8 mph 23.0 mph 0.01 in   Overcast
9:53 PM 32.0 °F 23.0 °F 26.1 °F 79% 30.04 in 10.0 mi East 11.5 mph 21.9 mph 0.01 in   Overcast
10:53 PM 33.1 °F 23.0 °F 27.0 °F 78% 30.04 in 9.0 mi ESE 15.0 mph 23.0 mph 0.02 in Rain Light Rain
11:21 PM 33.8 °F 25.3 °F 26.6 °F 75% 30.00 in 6.0 mi East 11.5 mph 23.0 mph 0.03 in Rain Light Freezing Rain
11:30 PM 33.8 °F 28.6 °F 28.4 °F 81% 30.02 in 7.0 mi ESE 5.8 mph - 0.03 in Rain Light Freezing Rain
11:45 PM 33.8 °F 25.8 °F 28.4 °F 81% 30.01 in 4.0 mi ESE 10.4 mph 17.3 mph 0.05 in Rain Light Freezing Rain
11:53 PM 32.0 °F 24.8 °F 28.9 °F 88% 30.03 in 3.0 mi ESE 8.1 mph - 0.08 in Rain Light Freezing Rain